Weather History for Hot Springs, VA

Change the Weather History Date:

Monday, September 24, 2012

  Actual Average Record
Temperature  
Mean Temperature 48 °F -  
Max Temperature 57 °F 63 °F 82 °F (2010)
Min Temperature 39 °F 49 °F 39 °F (2012)
Degree Days  
Heating Degree Days 17    
Moisture  
Dew Point 35 °F    
Average Humidity 64    
Maximum Humidity 81    
Minimum Humidity 36    
Precipitation  
Precipitation 0.00 in - - ()
Sea Level Pressure  
Sea Level Pressure 30.25 in    
Wind  
Wind Speed 6 mph (West)    
Max Wind Speed 14 mph    
Max Gust Speed 20 mph    
Visibility 10 miles    
Events      
Averages and records for this station are not official NWS values.
T = Trace of Precipitation, MM = Missing Value Source: NWS Daily Summary

Daily Weather History Graph

Daily Weather History Graph

Search for Another Location

Airport:

Trip Planner

Search our weather history database for the weather conditions in past years. The results will help you decide how hot, cold, wet, or windy it might be!

Date:

Astronomy

Sep. 24, 2012 Rise Set
Actual Time 7:09 AM EDT 7:12 PM EDT
Civil Twilight 6:43 AM EDT 7:38 PM EDT
Nautical Twilight 6:12 AM EDT 8:09 PM EDT
Astronomical Twilight 5:41 AM EDT 8:40 PM EDT
Moon 3:52 PM EDT (9/24) 1:28 AM EDT (9/24)
Length of Visible Light 12h 55m
Length of Day
12h 03m
Waxing Gibbous, 70% of the Moon is Illuminated
Sep 24
Waxing Gibbous
Sep 29
Full
Oct 8
Last Quarter
Oct 15
New
Oct 21
First Quarter

Hourly Weather History & Observations

Time (EDT) Temp. Windchill Dew Point Humidity Pressure Visibility Wind Dir Wind Speed Gust Speed Precip Events Conditions
12:17 AM 42.8 °F 41.1 °F 33.8 °F 70% 30.25 in 10.0 mi NNW 3.5 mph - N/A   Clear
12:37 AM 42.8 °F 41.1 °F 33.8 °F 70% 30.24 in 10.0 mi NNW 3.5 mph - N/A   Clear
12:57 AM 42.8 °F 40.1 °F 33.8 °F 70% 30.24 in 10.0 mi NW 4.6 mph - N/A   Clear
1:17 AM 42.8 °F 40.1 °F 33.8 °F 70% 30.24 in 10.0 mi WNW 4.6 mph - N/A   Clear
1:37 AM 42.8 °F 40.1 °F 33.8 °F 70% 30.24 in 10.0 mi WNW 4.6 mph - N/A   Clear
1:57 AM 42.8 °F 40.1 °F 33.8 °F 70% 30.25 in 10.0 mi WNW 4.6 mph - N/A   Clear
2:17 AM 42.8 °F 39.3 °F 33.8 °F 70% 30.25 in 10.0 mi WNW 5.8 mph - N/A   Clear
2:37 AM 42.8 °F 41.1 °F 33.8 °F 70% 30.24 in 10.0 mi WNW 3.5 mph - N/A   Clear
2:57 AM 42.8 °F 40.1 °F 33.8 °F 70% 30.24 in 10.0 mi WNW 4.6 mph - N/A   Clear
3:17 AM 42.8 °F 41.1 °F 33.8 °F 70% 30.23 in 10.0 mi WNW 3.5 mph - N/A   Clear
3:37 AM 42.8 °F 39.3 °F 33.8 °F 70% 30.23 in 10.0 mi WNW 5.8 mph - N/A   Clear
3:57 AM 42.8 °F 41.1 °F 33.8 °F 70% 30.23 in 10.0 mi WNW 3.5 mph - N/A   Clear
4:17 AM 41.0 °F 39.0 °F 33.8 °F 76% 30.23 in 10.0 mi West 3.5 mph - N/A   Clear
4:37 AM 39.2 °F 35.9 °F 33.8 °F 81% 30.24 in 10.0 mi West 4.6 mph - N/A   Clear
4:57 AM 39.2 °F 35.9 °F 33.8 °F 81% 30.24 in 10.0 mi West 4.6 mph - N/A   Clear
5:17 AM 39.2 °F 35.0 °F 33.8 °F 81% 30.24 in 10.0 mi West 5.8 mph - N/A   Clear
5:57 AM 39.2 °F 34.2 °F 33.8 °F 81% 30.25 in 10.0 mi West 6.9 mph - N/A   Clear
6:18 AM 39.2 °F 35.0 °F 33.8 °F 81% 30.25 in 10.0 mi West 5.8 mph - N/A   Clear
6:38 AM 39.2 °F 34.2 °F 33.8 °F 81% 30.25 in 10.0 mi WNW 6.9 mph - N/A   Clear
6:58 AM 39.2 °F 35.0 °F 33.8 °F 81% 30.26 in 10.0 mi WNW 5.8 mph - N/A   Clear
7:18 AM 39.2 °F 35.0 °F 33.8 °F 81% 30.26 in 10.0 mi WNW 5.8 mph - N/A   Clear
7:38 AM 39.2 °F 35.0 °F 33.8 °F 81% 30.27 in 10.0 mi WNW 5.8 mph - N/A   Clear
7:58 AM 39.2 °F 35.0 °F 33.8 °F 81% 30.27 in 10.0 mi NW 5.8 mph - N/A   Clear
8:18 AM 41.0 °F 37.1 °F 35.6 °F 81% 30.27 in 10.0 mi NW 5.8 mph - N/A   Clear
8:38 AM 41.0 °F 37.1 °F 35.6 °F 81% 30.28 in 10.0 mi WNW 5.8 mph - N/A   Clear
8:58 AM 42.8 °F 38.0 °F 35.6 °F 76% 30.28 in 10.0 mi WNW 8.1 mph - N/A   Clear
9:18 AM 42.8 °F 38.0 °F 35.6 °F 76% 30.29 in 10.0 mi WNW 8.1 mph - N/A   Clear
9:38 AM 44.6 °F 38.8 °F 35.6 °F 71% 30.29 in 10.0 mi NW 11.5 mph - N/A   Clear
9:58 AM 44.6 °F 38.8 °F 33.8 °F 66% 30.30 in 10.0 mi NW 11.5 mph - N/A   Clear
10:18 AM 46.4 °F 41.9 °F 33.8 °F 62% 30.30 in 10.0 mi NW 9.2 mph - N/A   Clear
10:38 AM 46.4 °F 41.1 °F 33.8 °F 62% 30.30 in 10.0 mi NW 11.5 mph 16.1 mph N/A   Clear
10:58 AM 46.4 °F 41.1 °F 35.6 °F 66% 30.30 in 10.0 mi WNW 11.5 mph - N/A   Clear
11:17 AM 46.4 °F 41.1 °F 35.6 °F 66% 30.30 in 10.0 mi WNW 11.5 mph 18.4 mph N/A   Clear
11:38 AM 48.2 °F - 35.6 °F 62% 30.29 in 10.0 mi WNW 13.8 mph - N/A   Clear
11:57 AM 48.2 °F - 35.6 °F 62% 30.29 in 10.0 mi NW 10.4 mph 17.3 mph N/A   Clear
12:17 PM 50.0 °F - 35.6 °F 58% 30.29 in 10.0 mi NW 12.7 mph - N/A   Clear
12:38 PM 51.8 °F - 35.6 °F 54% 30.28 in 10.0 mi NNW 9.2 mph - N/A   Clear
12:58 PM 51.8 °F - 35.6 °F 54% 30.28 in 10.0 mi West 8.1 mph - N/A   Clear
1:57 PM 53.6 °F - 33.8 °F 47% 30.26 in 10.0 mi West 6.9 mph - N/A   Clear
2:18 PM 55.4 °F - 32.0 °F 41% 30.26 in 10.0 mi Calm Calm - N/A   Clear
2:37 PM 55.4 °F - 30.2 °F 38% 30.25 in 10.0 mi North 3.5 mph - N/A   Clear
2:57 PM 55.4 °F - 32.0 °F 41% 30.25 in 10.0 mi North 3.5 mph - N/A   Clear
3:17 PM 57.2 °F - 32.0 °F 38% 30.24 in 10.0 mi Calm Calm - N/A   Clear
3:37 PM 57.2 °F - 30.2 °F 36% 30.24 in 10.0 mi West 3.5 mph - N/A   Clear
3:57 PM 57.2 °F - 30.2 °F 36% 30.24 in 10.0 mi West 6.9 mph - N/A   Clear
4:17 PM 57.2 °F - 30.2 °F 36% 30.23 in 10.0 mi Calm Calm - N/A   Clear
4:37 PM 57.2 °F - 39.2 °F 51% 30.23 in 10.0 mi SSE 4.6 mph - N/A   Clear
4:57 PM 55.4 °F - 37.4 °F 51% 30.23 in 10.0 mi SSE 5.8 mph - N/A   Clear
5:17 PM 55.4 °F - 37.4 °F 51% 30.22 in 10.0 mi SSE 6.9 mph - N/A   Clear
5:37 PM 55.4 °F - 37.4 °F 51% 30.22 in 10.0 mi South 5.8 mph - N/A   Clear
5:57 PM 55.4 °F - 37.4 °F 51% 30.22 in 10.0 mi South 4.6 mph - N/A   Clear
6:17 PM 53.6 °F - 39.2 °F 58% 30.23 in 10.0 mi South 4.6 mph - N/A   Clear
6:37 PM 53.6 °F - 37.4 °F 54% 30.23 in 10.0 mi South 5.8 mph - N/A   Clear
6:57 PM 51.8 °F - 37.4 °F 58% 30.23 in 10.0 mi South 4.6 mph - N/A   Clear
7:17 PM 50.0 °F - 37.4 °F 62% 30.23 in 10.0 mi SSW 5.8 mph - N/A   Clear
7:37 PM 48.2 °F - 37.4 °F 66% 30.23 in 10.0 mi South 5.8 mph - N/A   Clear
7:57 PM 48.2 °F - 37.4 °F 66% 30.23 in 10.0 mi SSW 6.9 mph - N/A   Clear
8:17 PM 48.2 °F - 37.4 °F 66% 30.23 in 10.0 mi SSW 5.8 mph - N/A   Clear
8:37 PM 50.0 °F - 37.4 °F 62% 30.24 in 10.0 mi South 8.1 mph - N/A   Clear
8:57 PM 48.2 °F - 37.4 °F 66% 30.24 in 10.0 mi South 10.4 mph - N/A   Clear
9:17 PM 48.2 °F - 37.4 °F 66% 30.24 in 10.0 mi SSW 9.2 mph - N/A   Clear
9:37 PM 48.2 °F - 39.2 °F 71% 30.24 in 10.0 mi South 9.2 mph - N/A   Clear
9:57 PM 48.2 °F - 37.4 °F 66% 30.24 in 10.0 mi South 11.5 mph - N/A   Clear
10:17 PM 48.2 °F - 37.4 °F 66% 30.24 in 10.0 mi South 10.4 mph 16.1 mph N/A   Clear
10:37 PM 48.2 °F - 37.4 °F 66% 30.24 in 10.0 mi SSW 10.4 mph - N/A   Clear
10:57 PM 48.2 °F - 37.4 °F 66% 30.24 in 10.0 mi SSW 9.2 mph - N/A   Clear
11:17 PM 48.2 °F - 37.4 °F 66% 30.23 in 10.0 mi SSW 12.7 mph 17.3 mph N/A   Clear
11:37 PM 48.2 °F - 37.4 °F 66% 30.24 in 10.0 mi SW 11.5 mph 19.6 mph N/A   Clear
11:57 PM 48.2 °F - 37.4 °F 66% 30.23 in 10.0 mi SW 12.7 mph - N/A   Clear